Simultaneous Nadir Overpasses (SNOs) Predictions

Prediction of SNOs between AQUA and GOES-15 Satellite Orbit:

Table of predicted SNOs for the next 14.0 days since TLE Epoch: 1/12/2018
Index Date Time (AQUA) AQUA Lat,Lon GOES-15 Lat,Lon Distance(km) Time Diff (sec)
1 01/14/2018 22:23:00 0.61,-131.89 0.04,-134.66 314.94 80
2 01/15/2018 10:44:16 0.47,-137.05 -0.05,-134.68 269.76 80
3 01/17/2018 10:32:05 -0.15,-134.09 -0.04,-134.58 56.49 80
4 01/19/2018 10:19:54 -0.78,-131.13 -0.04,-134.48 382.22 80
5 01/19/2018 22:41:18 -0.35,-136.31 0.04,-134.42 214.92 80
6 01/21/2018 22:29:06 0.22,-133.34 0.04,-134.32 110.15 80
7 01/22/2018 10:50:22 0.84,-138.50 -0.05,-134.32 475.54 80
8 01/23/2018 22:16:55 0.86,-130.38 0.04,-134.21 434.58 80
9 01/24/2018 10:38:10 0.27,-135.53 -0.04,-134.21 151.18 80
10 01/26/2018 10:25:59 -0.37,-132.58 -0.04,-134.09 172.48 80




NCC Satellite Simultaneous Nadir Overpasses (SNOs) Prediction Service
